Regional Weather Roundup
Issued by NWS Upton, NY

Current Version | Previous Version | Graphics & Text | Print | Product List | Glossary Off
Versions: 1 2 3 4 5 6 7 8 9 10 11 12 13 14 15 16 17 18 19 20 21 22 23 24 25 26 27 28 29 30 31 32 33 34 35 36 37 38 39 40 41 42 43 44 45 46 47 48 49 50

000
ASUS41 KOKX 100105
RWROKX
REGIONAL WEATHER ROUNDUP
NATIONAL WEATHER SERVICE NEW YORK NY
900 PM EDT WED JUL 09 2014

NOTE: "FAIR" INDICATES FEW OR NO CLOUDS BELOW 12,000 FEET WITH NO
SIGNIFICANT WEATHER AND/OR OBSTRUCTIONS TO VISIBILITY.

NYZ071-072-176-178-NJZ106-104-100200-
NEW YORK CITY METRO AREA


CITY           SKY/WX    TMP DP  RH WIND       PRES   REMARKS
CENTRAL PARK   CLOUDY    71  67  87 CALM      29.93S
LAGUARDIA APRT CLOUDY    79  63  57 CALM      29.90R
KENNEDY INTL   CLOUDY    72  65  78 SW7       29.92R
NEWARK/LIBERTY MOCLDY    81  63  54 W6        29.90R
BRNX BOT. GARD   N/A    N/A N/A N/A E3        29.91R
TETERBORO      CLOUDY    79  61  53 CALM      29.89R
$$

NYZ177-179-078>081-100200-
LONG ISLAND NEW YORK

CITY           SKY/WX    TMP DP  RH WIND       PRES   REMARKS
FARMINGDALE    MOCLDY    74  67  78 SW13      29.92R
ISLIP          CLOUDY    75  68  78 SW9       29.91R
SHIRLEY        CLOUDY    73  69  87 SW8       29.93R
WESTHAMPTON    CLOUDY    71  69  93 SW7       29.93S FOG
MONTAUK POINT    N/A     71  69  93 S7        29.93R
$$

NYZ052-065-067-100200-
HUDSON VALLEY

CITY           SKY/WX    TMP DP  RH WIND       PRES   REMARKS
WHITE PLAINS   CLOUDY    74  64  71 CALM      29.91R
NEWBURGH       NOT AVBL
MONTGOMERY       N/A     68  64  87 MISG      29.92R
POUGHKEEPSIE   CLOUDY    75  62  64 W9        29.90R
ALBANY         MOCLDY    68  64  87 CALM      29.92R
$$

NJZ001-105-106-008-010-013-015-019>022-104-100200-
NEW JERSEY

CITY           SKY/WX    TMP DP  RH WIND       PRES   REMARKS
NEWARK/LIBERTY MOCLDY    81  63  54 W6        29.90R
TETERBORO      CLOUDY    79  61  53 CALM      29.89R
CALDWELL       MOCLDY    71  69  93 CALM      29.92R
MORRISTOWN     MOCLDY    70  66  88 CALM      29.92R
SOMERVILLE     MOCLDY    75  65  70 CALM      29.89R
LINDEN         FAIR      82  64  54 CALM      29.93R
SUSSEX         MOCLDY    72  66  81 CALM      29.94R
ANDOVER          N/A     68  67  96 CALM      29.94R
TRENTON        MOCLDY    80  64  58 SW5       29.91R
MILLVILLE      LGT RAIN  77  72  84 VRB5      29.94R
ATLANTIC CITY  CLOUDY    76  70  82 S8        29.93R
WRIGHTSTOWN    CLOUDY    79  71  75 S8        29.91R
TOMS RIVER     CLOUDY    79  70  73 S6        29.93R
BELMAR         CLOUDY    81  68  65 S12G17    29.93R
$$

PAZ047>061-062-071-100200-
EASTERN PENNSYLVANIA

CITY           SKY/WX    TMP DP  RH WIND       PRES   REMARKS
PHILADELPHIA   CLOUDY    82  69  64 SW10      29.92R
ALLENTOWN      MOCLDY    74  68  81 CALM      29.91R
SCRANTON       PTCLDY    68  62  81 CALM      29.95R
$$

CTZ002-004>006-009-010-012-RIZ004-006-007-MAZ004-011-015-100200-
SOUTHERN NEW ENGLAND
 IN CT

CITY           SKY/WX    TMP DP  RH WIND       PRES   REMARKS
BRADLEY INTL   MOCLDY    80  68  66 S9        29.87R
HARTFORD       CLOUDY    78  66  66 S6        29.87F
DANBURY        LGT RAIN  70  64  83 SW6       29.93
WTRBRY/OXFORD  MOCLDY    72  64  78 CALM      29.94R THUNDER
BRIDGEPORT     CLOUDY    79  68  69 SW7       29.90R
MERIDEN        LGT RAIN  74  68  81 S5        29.91R
NEW HAVEN      CLOUDY    79  67  66 CALM      29.90S
CHESTER        FAIR      73  66  78 SW6       29.94R
GROTON         MOCLDY    69  66  90 CALM      29.91R
WILLIMANTIC    CLOUDY    77  66  68 S7        29.91R

 IN RI

CITY           SKY/WX    TMP DP  RH WIND       PRES   REMARKS
PROVIDENCE     CLOUDY    75  65  70 SW8       29.92R
BLOCK ISLAND   CLOUDY    70  66  88 S14       29.93R VSB 1/2
WESTERLY       MOCLDY    71  66  84 S6        29.93R

 IN MA

CITY           SKY/WX    TMP DP  RH WIND       PRES   REMARKS
BOSTON         MOCLDY    77  64  64 S10       29.89R
WORCESTER      MOCLDY    74  63  68 S8        29.93R
WESTFIELD      MOCLDY    76  66  71 CALM      29.88R
PROVINCETOWN   NOT AVBL
NANTUCKET      FOG       67  67 100 S7        29.95R VSB 1/4
$$

ANZ330-335-338-340-345-350-353-355-100200-
COASTAL MARINE OBSERVATIONS


STATION/POSITION TIME  SKY/WX   TEMP    WIND        PRES    VSBY  WAVE
                                AIR SEA DIR/SP/G                  HT/PER
                 (UTC)          (F)     (DEG/KT/KT) (MB)    (MI)  (FT/S)
NY HARB ENTRANCE NOT AVBL
4S FIRE IS       0000               67                N/A           5/ 8
23SW MTP         0100            67 65              1012.7          5/ 8
HUDSON CANYON    0100            71 70  210/ 12/ 14 1013.7          4/ 8
EXECUTION ROCKS  0100            75 66  260/  4/  6   N/A
WESTERN LI SOUND 0100            74     250/  8/ 12   N/A           1
CENTRAL LI SOUND 0000            73 70  200/ 12/ 14   N/A           1/ 3
EASTERN LI SOUND 0000            68 66  170/  4/  4   N/A
ROBBINS REEF     0100            81     280/  3/  4   N/A
$$


>>>>>>>>>>>>>>>>>>>>>>>>>>>> KEY <<<<<<<<<<<<<<<<<<<<<<<<<<<
>                                                          <
>     SKY/WX - SKY CONDITION/PRESENT WEATHER               <
>     TMP    - TEMPERATURE IN FAHRENHEIT                   <
>     DP     - DEWPOINT IN FAHRENHEIT                      <
>     RH     - RELATIVE HUMIDITY IN PERCENT                <
>     WIND   - DIRECTION AND SPEED IN MPH                  <
>     PRES   - MEAN SEA LEVEL PRESSURE IN INCHES OF HG     <
>     WCI    - WIND CHILL INDEX                            <
>     VSB    - VISIBILITY IN MILES                         <
>     HX     - HEAT INDEX                                  <
>     TC     - TEMPERATURE IN CELSIUS                      <
>     VRB    - VARIABLE WIND DIRECTION                     <
>                                                          <
>>>>>>>>>>>>>>>>>>>>>>>>>>>> KEY <<<<<<<<<<<<<<<<<<<<<<<<<<<




USA.gov is the U.S. government's official web portal to all federal, state and local government web resources and services.